TimeEST,TemperatureF,Dew PointF,Humidity,Sea Level PressureIn,VisibilityMPH,Wind Direction,Wind SpeedMPH,Gust SpeedMPH,PrecipitationIn,Events,Conditions,WindDirDegrees,DateUTC
12:55 AM,36.5,34.2,91,29.93,10.0,WSW,4.6,-,N/A,,Clear,250,2012-12-19 05:55:00
1:55 AM,37.0,33.3,86,29.94,10.0,Calm,Calm,-,N/A,,Clear,0,2012-12-19 06:55:00
2:55 AM,36.0,32.5,87,29.94,10.0,Calm,Calm,-,N/A,,Clear,0,2012-12-19 07:55:00
3:55 AM,35.4,32.0,87,29.95,10.0,Calm,Calm,-,N/A,,Clear,0,2012-12-19 08:55:00
4:55 AM,39.4,32.4,76,29.95,10.0,West,6.9,-,N/A,,Clear,270,2012-12-19 09:55:00
5:55 AM,34.2,32.0,92,29.97,10.0,Calm,Calm,-,N/A,,Clear,0,2012-12-19 10:55:00
6:55 AM,35.1,32.4,90,30.00,10.0,Calm,Calm,-,N/A,,Clear,0,2012-12-19 11:55:00
7:55 AM,34.9,32.4,91,30.02,10.0,Calm,Calm,-,N/A,,Clear,0,2012-12-19 12:55:00
8:55 AM,44.4,35.4,71,30.05,10.0,WSW,3.5,-,N/A,,Clear,250,2012-12-19 13:55:00
9:55 AM,51.4,34.2,52,30.06,10.0,West,6.9,-,N/A,,Clear,270,2012-12-19 14:55:00
10:55 AM,57.6,33.4,40,30.07,10.0,WNW,3.5,-,N/A,,Clear,290,2012-12-19 15:55:00
11:55 AM,62.2,35.2,37,30.04,10.0,West,3.5,-,N/A,,Clear,280,2012-12-19 16:55:00
12:55 PM,65.8,36.5,34,30.02,10.0,WNW,8.1,-,N/A,,Clear,300,2012-12-19 17:55:00
1:55 PM,67.5,37.0,33,30.01,10.0,West,6.9,-,N/A,,Clear,260,2012-12-19 18:55:00
2:55 PM,66.4,37.2,34,30.00,10.0,West,9.2,-,N/A,,Clear,260,2012-12-19 19:55:00
3:55 PM,66.6,38.7,36,30.01,10.0,West,10.4,-,N/A,,Clear,260,2012-12-19 20:55:00
4:55 PM,59.9,40.6,49,30.03,10.0,WSW,8.1,-,N/A,,Clear,250,2012-12-19 21:55:00
5:55 PM,53.4,40.1,61,30.06,10.0,WSW,3.5,-,N/A,,Clear,240,2012-12-19 22:55:00
6:55 PM,51.4,41.2,68,30.08,10.0,Calm,Calm,-,N/A,,Clear,0,2012-12-19 23:55:00
7:55 PM,48.4,41.2,76,30.09,10.0,Calm,Calm,-,N/A,,Clear,0,2012-12-20 00:55:00
8:55 PM,44.1,40.1,86,30.10,10.0,Calm,Calm,-,N/A,,Clear,0,2012-12-20 01:55:00
9:55 PM,42.8,39.9,90,30.12,10.0,Calm,Calm,-,N/A,,Clear,0,2012-12-20 02:55:00
10:55 PM,41.4,39.2,92,30.12,10.0,Calm,Calm,-,N/A,,Clear,0,2012-12-20 03:55:00
11:55 PM,39.6,38.3,95,30.13,10.0,Calm,Calm,-,N/A,,Clear,0,2012-12-20 04:55:00